When you browse on this site, cookies collect data to enhance your experience and personalize the content and advertising you see.
Visit our Privacy Policy to learn more. By continuing to use the site, you agree to this use of cookies and data.
EN

Hourly Weather Sparta

Today, 4 August, Tuesday

Time Temperature Precipitation Wind Pressure Humidity
00:00 +26°C° 0 mm 1 mps 740 mmHg 72%
01:00 +23°C° 0 mm 0 mps 740 mmHg 73%
02:00 +25°C° 0 mm 1 mps 740 mmHg 73%
03:00 +25°C° 0 mm 1 mps 740 mmHg 73%
04:00 +25°C° 0 mm 1 mps 740 mmHg 73%
05:00 +27°C° 0 mm 1 mps 740 mmHg 66%
06:00 +29°C° 0 mm 1 mps 740 mmHg 59%
07:00 +29°C° 0 mm 0 mps 741 mmHg 52%
08:00 +32°C° 0 mm 1 mps 741 mmHg 47%
09:00 +35°C° 0 mm 2 mps 741 mmHg 41%
10:00 +36°C° 0 mm 2 mps 741 mmHg 35%
11:00 +36°C° 0 mm 3 mps 741 mmHg 35%
12:00 +37°C° 0 mm 3 mps 740 mmHg 35%
13:00 +37°C° 0 mm 4 mps 740 mmHg 35%
14:00 +36°C° 0 mm 3 mps 740 mmHg 37%
15:00 +35°C° 0 mm 3 mps 740 mmHg 40%
16:00 +35°C° 0 mm 2 mps 739 mmHg 42%
17:00 +32°C° 0 mm 2 mps 739 mmHg 48%
18:00 +30°C° 0 mm 1 mps 739 mmHg 55%
19:00 +28°C° 0 mm 1 mps 739 mmHg 61%
20:00 +27°C° 0 mm 1 mps 739 mmHg 59%
21:00 +27°C° 0 mm 1 mps 739 mmHg 57%
22:00 +27°C° 0 mm 1 mps 739 mmHg 55%
23:00 +27°C° 0 mm 1 mps 739 mmHg 52%

Tomorrow, 5 August, Wednesday

Time Temperature Precipitation Wind Pressure Humidity
00:00 +27°C° 0 mm 1 mps 739 mmHg 49%
01:00 +26°C° 0 mm 1 mps 738 mmHg 46%
02:00 +26°C° 0 mm 1 mps 738 mmHg 45%
03:00 +26°C° 0 mm 1 mps 738 mmHg 43%
04:00 +26°C° 0 mm 1 mps 738 mmHg 42%
05:00 +28°C° 0 mm 1 mps 738 mmHg 39%
06:00 +30°C° 0 mm 1 mps 738 mmHg 35%
07:00 +30°C° 0 mm 0 mps 738 mmHg 32%
08:00 +33°C° 0 mm 1 mps 739 mmHg 30%
09:00 +36°C° 0 mm 2 mps 739 mmHg 28%
10:00 +37°C° 0 mm 3 mps 739 mmHg 27%
11:00 +38°C° 0 mm 3 mps 739 mmHg 27%
12:00 +38°C° 0 mm 3 mps 739 mmHg 27%
13:00 +38°C° 0 mm 3 mps 739 mmHg 28%
14:00 +38°C° 0 mm 3 mps 738 mmHg 30%
15:00 +37°C° 0 mm 3 mps 738 mmHg 32%
16:00 +36°C° 0 mm 3 mps 738 mmHg 34%
17:00 +34°C° 0 mm 3 mps 738 mmHg 44%
18:00 +31°C° 0 mm 2 mps 738 mmHg 54%
19:00 +28°C° 0 mm 2 mps 738 mmHg 65%
20:00 +27°C° 0 mm 2 mps 738 mmHg 71%
21:00 +27°C° 0 mm 1 mps 738 mmHg 76%
22:00 +26°C° 0 mm 1 mps 739 mmHg 82%
23:00 +25°C° 0 mm 2 mps 738 mmHg 82%

Day after tomorrow, 6 August, Thursday

Time Temperature Precipitation Wind Pressure Humidity
00:00 +25°C° 0 mm 2 mps 738 mmHg 82%
01:00 +24°C° 0 mm 2 mps 738 mmHg 82%
02:00 +24°C° 0 mm 2 mps 738 mmHg 77%
03:00 +23°C° 0 mm 1 mps 738 mmHg 71%
04:00 +23°C° 0 mm 1 mps 738 mmHg 66%
05:00 +25°C° 0 mm 1 mps 738 mmHg 58%
06:00 +27°C° 0 mm 1 mps 739 mmHg 51%
07:00 +28°C° 0 mm 1 mps 739 mmHg 44%
08:00 +30°C° 0 mm 2 mps 740 mmHg 38%
09:00 +32°C° 0 mm 2 mps 740 mmHg 33%
10:00 +34°C° 0 mm 2 mps 740 mmHg 27%
11:00 +35°C° 0 mm 3 mps 740 mmHg 26%
12:00 +35°C° 0 mm 3 mps 740 mmHg 26%
13:00 +36°C° 0 mm 3 mps 740 mmHg 25%
14:00 +35°C° 0 mm 3 mps 740 mmHg 29%
15:00 +34°C° 0 mm 3 mps 740 mmHg 33%
16:00 +33°C° 0 mm 3 mps 739 mmHg 37%
17:00 +30°C° 0 mm 3 mps 739 mmHg 48%
18:00 +28°C° 0 mm 2 mps 739 mmHg 58%
19:00 +26°C° 0 mm 2 mps 739 mmHg 68%
20:00 +25°C° 0 mm 2 mps 740 mmHg 71%
21:00 +24°C° 0 mm 2 mps 740 mmHg 74%
22:00 +24°C° 0 mm 2 mps 740 mmHg 77%
23:00 +24°C° 0 mm 2 mps 740 mmHg 78%

7 August, Friday

Time Temperature Precipitation Wind Pressure Humidity
00:00 +23°C° 0 mm 2 mps 740 mmHg 79%
01:00 +23°C° 0 mm 1 mps 739 mmHg 79%
02:00 +23°C° 0 mm 1 mps 739 mmHg 79%
03:00 +23°C° 0 mm 1 mps 739 mmHg 78%
04:00 +22°C° 0 mm 1 mps 739 mmHg 78%
05:00 +24°C° 0 mm 1 mps 740 mmHg 71%
06:00 +26°C° 0 mm 1 mps 740 mmHg 63%
07:00 +28°C° 0 mm 1 mps 741 mmHg 56%
08:00 +29°C° 0 mm 1 mps 741 mmHg 51%
09:00 +30°C° 0 mm 2 mps 741 mmHg 46%
10:00 +32°C° 0 mm 2 mps 741 mmHg 41%
11:00 +32°C° 0 mm 2 mps 741 mmHg 41%
12:00 +33°C° 0 mm 3 mps 741 mmHg 42%
13:00 +31°C° 0 mm 3 mps 741 mmHg 42%
14:00 +31°C° 0.1 mm 3 mps 741 mmHg 46%
15:00 +30°C° 0.1 mm 3 mps 741 mmHg 51%
16:00 +29°C° 0.1 mm 2 mps 740 mmHg 55%
17:00 +28°C° 0.1 mm 2 mps 740 mmHg 62%
18:00 +27°C° 0.1 mm 2 mps 740 mmHg 69%
19:00 +25°C° 0.1 mm 1 mps 740 mmHg 76%
20:00 +25°C° 0 mm 1 mps 740 mmHg 78%
21:00 +24°C° 0 mm 1 mps 740 mmHg 80%
22:00 +24°C° 0 mm 1 mps 740 mmHg 82%
23:00 +23°C° 0 mm 1 mps 740 mmHg 82%

8 August, Saturday

Time Temperature Precipitation Wind Pressure Humidity
00:00 +23°C° 0 mm 1 mps 740 mmHg 82%
01:00 +23°C° 0 mm 1 mps 739 mmHg 83%
02:00 +23°C° 0 mm 1 mps 739 mmHg 83%
03:00 +23°C° 0 mm 1 mps 739 mmHg 82%
04:00 +22°C° 0 mm 1 mps 739 mmHg 82%
05:00 +24°C° 0 mm 1 mps 739 mmHg 75%
06:00 +26°C° 0 mm 1 mps 739 mmHg 67%
07:00 +27°C° 0 mm 1 mps 739 mmHg 60%
08:00 +29°C° 0 mm 1 mps 739 mmHg 54%
09:00 +30°C° 0 mm 1 mps 739 mmHg 49%
10:00 +32°C° 0 mm 2 mps 739 mmHg 43%
11:00 +31°C° 0.7 mm 2 mps 739 mmHg 46%
12:00 +31°C° 0.7 mm 2 mps 739 mmHg 49%
13:00 +30°C° 0.7 mm 2 mps 739 mmHg 52%
14:00 +29°C° 1.9 mm 2 mps 738 mmHg 59%
15:00 +27°C° 1.9 mm 1 mps 738 mmHg 66%
16:00 +26°C° 1.9 mm 1 mps 738 mmHg 73%
17:00 +26°C° 0.2 mm 1 mps 738 mmHg 75%
18:00 +25°C° 0.2 mm 1 mps 737 mmHg 77%
19:00 +24°C° 0.2 mm 1 mps 737 mmHg 80%
20:00 +24°C° 0 mm 1 mps 737 mmHg 79%
21:00 +24°C° 0 mm 1 mps 737 mmHg 79%
22:00 +24°C° 0 mm 2 mps 738 mmHg 79%
23:00 +23°C° 0 mm 1 mps 737 mmHg 80%

9 August, Sunday

Time Temperature Precipitation Wind Pressure Humidity
00:00 +23°C° 0 mm 1 mps 737 mmHg 81%
01:00 +23°C° 0 mm 1 mps 737 mmHg 81%
02:00 +23°C° 0 mm 2 mps 736 mmHg 82%
03:00 +23°C° 0 mm 2 mps 736 mmHg 82%
04:00 +21°C° 0 mm 2 mps 736 mmHg 82%
05:00 +24°C° 0.1 mm 2 mps 737 mmHg 77%
06:00 +25°C° 0.1 mm 3 mps 737 mmHg 72%
07:00 +26°C° 0.1 mm 3 mps 737 mmHg 68%
08:00 +27°C° 0 mm 4 mps 738 mmHg 62%
09:00 +29°C° 0 mm 4 mps 738 mmHg 57%
10:00 +30°C° 0 mm 5 mps 738 mmHg 51%
11:00 +30°C° 0.1 mm 5 mps 738 mmHg 49%
12:00 +32°C° 0.1 mm 5 mps 738 mmHg 47%
13:00 +33°C° 0.1 mm 5 mps 738 mmHg 45%
14:00 +32°C° 0.1 mm 5 mps 738 mmHg 46%
15:00 +32°C° 0.1 mm 5 mps 738 mmHg 47%
16:00 +30°C° 0.1 mm 5 mps 738 mmHg 48%
17:00 +29°C° 0 mm 4 mps 738 mmHg 51%
18:00 +28°C° 0 mm 4 mps 739 mmHg 54%
19:00 +26°C° 0 mm 3 mps 739 mmHg 58%
20:00 +26°C° 0 mm 3 mps 739 mmHg 58%
21:00 +25°C° 0 mm 2 mps 739 mmHg 59%
22:00 +25°C° 0 mm 2 mps 739 mmHg 59%
23:00 +25°C° 0 mm 2 mps 739 mmHg 58%
Show more